sat.trackr.live / text

‹ back to catalog

UNKNOWN

NORAD 81449

UNKNOWN UNKNOWN UNKNOWN

§ Identity

Operator
Country
Launch date
Launch site
Launch vehicle
Mass (kg)
RCS (m²)

External: N2YO · Heavens-Above

§ Orbital elements

Epoch: 2026-05-15T17:36:41.299776Z

Period
92.96 min
Inclination
66.7822°
Eccentricity
0.0024889
Mean motion
15.49097576 rev/d
Perigee alt
402.4 km
Apogee alt
436.3 km
Semi-major
6,797.5 km
B*
5.4215e-3
RAAN
250.1209°
Arg perigee
305.3844°
Mean anomaly
54.4990°
Rev number
65,693

§ Raw data

UNKNOWN1 81449U          26135.73381134  .00311116  00000+0  54215-2 0  99942 81449  66.7822 250.1209 0024889 305.3844  54.4990 15.49097576656939

JSON: /api/v1/satellites/81449 · /tle

For live sub-satellite position, see the globe view (requires WebGL).

§ Visibility from observer

Set your observer location to see the next 7 days of passes ≥ 10°. The values pass through the URL so the page stays shareable.

No JS? Fill the form by hand. The geolocation button needs JavaScript.